Flag for Brazil Weather past 2 weeks in Parnaíba, Piauí, Brazil

Now
88 °F

Clear.


Feels Like: 86 °F
Forecast: N/A
Wind: No wind

Location: Teresina Aeroporto

Current Time: Aug 1, 2015 at 8:02:43 PM

Latest Report: Aug 1, 2015 at 7:00 PM


Visibility: 10 mi

Pressure: 29.83 "Hg

Humidity: 33%

Dew point: 55 °F

Location of ParnaíbaLocation

Historic Weather in Parnaíba — Graph

°F

Parnaíba temperature yesterday

Maximum temperature yesterday: 95 °F (at 2:00 PM)
Minimum temperature yesterday: 73 °F (at 5:00 AM)
Average temperature yesterday: 84 °F

Past Weeks' High & Low Weather Summary

 TemperatureHumidityPressure
High97 °F (Jul 20, 2:00 PM)100% (Jul 22, 5:00 AM)30.01 "Hg (Jul 22, 5:00 AM)
Low72 °F (Jul 27, 5:00 AM)23% (Aug 1, 5:00 PM)29.80 "Hg (Jul 27, 4:00 PM)
Average85 °F62%29.92 "Hg
* Reported Jul 17 6:00 PM — Aug 1 6:00 PM, Parnaíba, Weather by CustomWeather, © 2015

Note: Actual official high and low records may vary slightly from our data, if they occured in-between our weather recording intervals... More about our weather records

Advertising

Parnaíba weather history for previous 24 hours

 ConditionsComfort  
Time TempWeatherWind HumidityBarometerVisibility
6:00 PM
Sat, Aug 1
93 °FClear.5 mph23%29.83 "Hg10 mi
5:00 PM95 °FSunny.8 mph23%29.80 "Hg10 mi
4:00 PM95 °FSunny.9 mph25%29.80 "Hg10 mi
3:00 PM95 °FSunny.12 mph26%29.83 "Hg10 mi
2:00 PM93 °FSunny.12 mph28%29.86 "Hg10 mi
1:00 PM93 °FSunny.8 mph32%29.89 "Hg10 mi
12:00 PM90 °FSunny.9 mph36%29.95 "Hg10 mi
11:00 AM90 °FSunny.8 mph41%29.95 "Hg10 mi
10:00 AM86 °FSunny.13 mph46%29.98 "Hg10 mi
9:00 AM84 °FSunny.10 mph51%29.98 "Hg10 mi
8:00 AM81 °FSunny.13 mph58%29.98 "Hg10 mi
7:00 AM79 °FSunny.8 mph61%29.95 "Hg10 mi
6:00 AM77 °FSunny.No wind69%29.95 "Hg10 mi
5:00 AM79 °FClear.5 mph61%29.92 "Hg10 mi
4:00 AM79 °FClear.5 mph61%29.92 "Hg10 mi
3:00 AM81 °FClear.7 mph58%29.92 "Hg10 mi
2:00 AM82 °FClear.3 mph51%29.92 "Hg10 mi
1:00 AM81 °FClear.7 mph58%29.92 "Hg10 mi
12:00 AM81 °FPassing clouds.5 mph58%29.95 "HgN/A
11:00 PM
Fri, Jul 31
82 °FClear.No wind58%29.95 "Hg10 mi
10:00 PM86 °FClear.3 mph43%29.95 "Hg10 mi
9:00 PM84 °FPassing clouds.5 mph48%29.92 "HgN/A
8:00 PM84 °FClear.1 mph55%29.89 "Hg10 mi
Weather by CustomWeather, © 2015

See weather overviewHow to use our weather pages